Belmar-Farmingdale, NJ

3:00 AM EST on December 09, 2019 (GMT -0500)
Allaire

Weather History for KBLM - October, 2019

Change the Weather History Date:

Sunday, October 6, 2019

  Actual Average Record
Temperature  
Mean Temperature 64 °F -  
Max Temperature 71 °F 64 °F 84 °F (1997)
Min Temperature 57 °F 48 °F 37 °F (1999)
Degree Days  
Heating Degree Days 1    
Growing Degree Days 14 (Base 50)    
Moisture  
Dew Point 58 °F    
Average Humidity 73    
Maximum Humidity 78    
Minimum Humidity 64    
Precipitation  
Precipitation 0.00 in - - ()
Sea Level Pressure  
Sea Level Pressure 30.30 in    
Wind  
Wind Speed 7 mph ()    
Max Wind Speed 14 mph    
Max Gust Speed 21 mph    
Visibility 10.0 miles    
Events      
Averages and records for this station are not official NWS values.
T = Trace of Precipitation, MM = Missing Value Source: Averaged Metar Reports

Daily Weather History Graph

Daily Weather History Graph

Search for Another Location

Airport or City:

Astronomy

Oct. 06, 2019 Rise Set
Actual Time 6:57 AM EDT 6:31 PM EDT
Civil Twilight 6:30 AM EDT 6:58 PM EDT
Nautical Twilight 5:58 AM EDT 7:29 PM EDT
Astronomical Twilight 5:27 AM EDT 8:01 PM EDT
Moon 3:08 PM EDT (10/6) No Moon Set
Length of Visible Light 12h 27m
Length of Day
11h 33m
First Quarter, 59% of the Moon is Illuminated
Oct 6
First Quarter
Oct 13
Full
Oct 21
Last Quarter
Oct 27
New
Nov 4
First Quarter

Hourly Weather History & Observations

Time (EDT) Temp. Dew Point Humidity Pressure Visibility Wind Dir Wind Speed Gust Speed Precip Events Conditions
12:56 AM 57.0 °F 48.0 °F 72% 30.37 in 10.0 mi SE 3.5 mph - N/A   Overcast
1:56 AM 59.0 °F 48.0 °F 67% 30.35 in 10.0 mi SE 6.9 mph - N/A   Overcast
2:56 AM 60.1 °F 48.0 °F 64% 30.35 in 10.0 mi SE 5.8 mph - N/A   Overcast
3:56 AM 59.0 °F 50.0 °F 72% 30.34 in 10.0 mi SSE 4.6 mph - N/A   Mostly Cloudy
4:56 AM 60.1 °F 51.1 °F 72% 30.34 in 10.0 mi SSE 4.6 mph - N/A   Overcast
5:56 AM 61.0 °F 52.0 °F 72% 30.33 in 10.0 mi SE 5.8 mph - N/A   Overcast
6:56 AM 62.1 °F 53.1 °F 72% 30.33 in 10.0 mi SSE 5.8 mph - N/A   Overcast
7:56 AM 63.0 °F 54.0 °F 72% 30.34 in 10.0 mi SSE 6.9 mph - N/A   Overcast
8:56 AM 64.0 °F 55.0 °F 73% 30.34 in 10.0 mi SSE 10.4 mph - N/A   Overcast
9:56 AM 64.9 °F 57.0 °F 75% 30.34 in 10.0 mi SSE 9.2 mph - N/A   Overcast
10:56 AM 66.0 °F 59.0 °F 78% 30.34 in 10.0 mi SSE 9.2 mph 18.4 mph N/A   Overcast
11:56 AM 68.0 °F 60.1 °F 76% 30.33 in 10.0 mi SSE 8.1 mph 18.4 mph N/A   Overcast
12:56 PM 69.1 °F 62.1 °F 78% 30.32 in 10.0 mi SSE 13.8 mph 19.6 mph N/A   Overcast
1:06 PM 69.8 °F 62.6 °F 78% 30.32 in 10.0 mi SSE 10.4 mph 20.7 mph N/A   Overcast
1:56 PM 70.0 °F 63.0 °F 78% 30.30 in 10.0 mi SSE 10.4 mph 19.6 mph N/A   Overcast
2:56 PM 70.0 °F 63.0 °F 78% 30.28 in 10.0 mi SSE 10.4 mph 19.6 mph N/A   Overcast
3:16 PM 69.8 °F 62.6 °F 78% 30.28 in 10.0 mi South 10.4 mph - N/A   Overcast
3:44 PM 69.8 °F 62.6 °F 78% 30.27 in 10.0 mi SSE 8.1 mph - N/A   Overcast
3:56 PM 71.1 °F 62.1 °F 73% 30.27 in 10.0 mi SSW 11.5 mph 17.3 mph N/A   Overcast
4:26 PM 71.6 °F 62.6 °F 73% 30.27 in 10.0 mi SSW 8.1 mph 18.4 mph N/A   Overcast
4:56 PM 71.1 °F 61.0 °F 70% 30.27 in 10.0 mi South 11.5 mph 17.3 mph N/A   Overcast
5:56 PM 70.0 °F 60.1 °F 71% 30.27 in 10.0 mi SSW 10.4 mph - N/A   Overcast
6:56 PM 70.0 °F 59.0 °F 68% 30.27 in 10.0 mi South 9.2 mph - N/A   Overcast
7:56 PM 70.0 °F 60.1 °F 71% 30.26 in 10.0 mi South 11.5 mph 17.3 mph N/A   Overcast
8:56 PM 70.0 °F 61.0 °F 73% 30.26 in 10.0 mi South 10.4 mph - N/A   Overcast
9:56 PM 70.0 °F 62.1 °F 76% 30.27 in 10.0 mi South 9.2 mph 16.1 mph N/A   Overcast
10:56 PM 70.0 °F 61.0 °F 73% 30.26 in 10.0 mi South 9.2 mph - N/A   Overcast
11:56 PM 70.0 °F 60.1 °F 71% 30.26 in 10.0 mi South 8.1 mph - N/A   Overcast